Location: Plainartige
(45.6866°N, 1.7993°E)
Time: 07:47:58
(UTC+00:00)

Cosmos 1703 Rocket - Pass Details

Date: 03 March 2021
Orbit: 604 x 634 km, 82.5° (Epoch: 10 April)

Event Time Altitude Azimuth Distance (km) Brightness Sun altitude
Rises 18:47:45 0° 357° (N) 2,911 7.1 -12.2°
Reaches altitude 10° 18:50:06 10° 4° (N) 1,995 6.2 -12.6°
Maximum altitude 18:54:19 43° 76° (ENE) 867 3.9 -13.3°
Drops below altitude 10° 18:58:28 10° 149° (SSE) 1,962 5.8 -14.0°
Enters shadow 18:59:31 - 153° (SSE) 2,370 6.2 -14.2°
